Dewpoint
-11 -12 -12 -12 -12 -12 -12 -12 -12 -12 -13 -13 -14 -15 -15 -15 -15 -16 -15 -11 -13 -15 -13 -7 -6 -5 -3 -1 -2 -2 -1 -1 -4 -6 -8 -8 -8 -8 -8 -8 -8 -8 -8 -10 -8
-11 -11 -11 -10 -10 -9 -10 -10 -10 -10 -11 -11 -11 -11 -11 -12 -12 -12 -11 -13 -14 -15 -13 -8 -3 -2 -2 -1 -1 -2 1 -2 -7 -8 -7 -9 -9 -9 -9 -8 -8 -10 -10 -9 -7
-10 -9 -8 -8 -9 -9 -10 -11 -11 -11 -12 -12 -12 -12 -12 -12 -11 -9 -14 -15 -15 -14 -10 -5 -3 -3 -3 -3 -2 -1 0 -4 -6 -7 -5 -5 -6 -8 -9 -6 -7 -9 -8 -9 -8
-7 -7 -7 -9 -10 -10 -9 -8 -7 -6 -6 -5 -6 -7 -9 -12 -5 -14 -12 -10 -12 -13 -11 -6 -4 -3 -3 -2 -3 -2 -3 -4 -5 -6 -4 -4 -4 -4 -6 -7 -7 -7 -8 -8 -8
-6 -7 -9 -8 -7 -5 -4 -2 -1 -1 -1 -1 -2 -2 -2 -5 -7 -9 -10 -11 -12 -11 -10 -4 -4 -4 -2 -6 -7 -4 -3 -4 -5 -5 -5 -5 -3 -3 -5 -6 -8 -8 -9 -9 -9
-8 -7 -5 -3 -1 -1 -0 -1 -1 -2 -3 -3 -5 -5 -4 -3 -3 -8 -12 -10 -11 -10 -7 -4 -5 -5 -5 -5 -5 -6 -4 -5 -5 -6 -6 -5 -5 -5 -6 -8 -8 -9 -10 -10 -10
-3 -1 -0 0 1 1 0 -0 -0 -1 -1 -2 -4 -8 -6 -3 -2 -3 -11 -11 -10 -10 -4 -3 -4 -3 -6 -4 -5 -5 -3 -5 -6 -7 -6 -6 -4 -5 -9 -9 -10 -10 -10 -11 -11
1 1 1 2 2 2 2 2 2 2 2 2 -2 -9 -7 -4 -4 -4 -4 -6 -9 -8 -5 -2 -3 -4 -4 -4 -4 -4 -4 -2 -6 -7 -5 -7 -4 -7 -9 -8 -8 -8 -8 -8 -9
1 2 3 3 4 4 4 4 4 4 3 2 -3 -8 -4 -6 -6 -6 -7 -6 -7 -7 -6 -5 -4 -4 -4 -2 -2 -4 -2 -3 -3 -6 -5 -5 -4 -6 -8 -7 -7 -7 -8 -9 -9
3 4 5 5 5 5 5 5 5 4 3 -1 -5 -3 -5 -5 -7 -8 -7 -8 -6 -4 -3 -3 -3 -2 -3 -3 -1 -2 -1 -2 -2 -4 -5 -3 -3 -5 -6 -7 -7 -8 -8 -9 -6
5 6 6 6 7 7 6 5 5 5 4 2 4 -1 2 0 -1 -2 -4 -6 -3 -3 -2 -3 -2 -1 -2 -4 -4 -3 -2 -2 -3 -5 -4 -3 -3 -5 -6 -7 -7 -7 -7 -6 -5
6 8 7 8 8 7 6 6 6 5 4 3 2 3 3 3 -1 -1 -4 -3 -3 -2 -3 -1 0 -2 -3 -3 -3 -2 -1 -2 -3 -4 -4 -3 -3 -6 -7 -7 -7 -7 -6 -5 -5
8 8 8 8 8 7 6 5 5 4 4 3 3 3 2 1 2 -0 -2 -3 -3 -1 -1 -0 -1 -2 -3 -3 -2 -2 -1 -2 -2 -3 -5 -4 -2 -3 -4 -6 -5 -5 -5 -4 -4
8 8 8 8 7 7 6 6 5 5 5 3 1 -2 -3 -1 -1 -2 -2 -2 -1 0 0 -0 -2 -2 -2 -1 -2 -1 -3 -3 -2 -3 -1 -2 2 -2 -3 -4 -4 -4 -4 -3 -3
9 9 9 9 9 8 7 6 5 4 9 0 -3 -3 -5 -3 -4 -4 -4 -3 -1 -1 -3 -0 -2 -2 -1 -2 -4 -2 -4 -4 -4 -2 -1 -1 2 -1 -3 -3 -3 -3 -3 -3 -4
9 9 9 9 8 8 6 5 5 6 10 1 -3 -2 -3 -5 -5 -4 -3 -4 -4 -3 -3 -3 -5 -5 -4 -6 -4 -4 -4 -3 -3 -2 4 1 1 0 -3 -4 -4 -3 -3 -3 -4
9 8 8 8 8 6 5 5 8 9 2 4 -0 -3 -3 -3 -4 -4 -3 -3 -1 0 0 -1 -2 -4 -5 -3 -4 -4 -2 4 5 5 5 1 2 0 -4 -6 -5 -3 -3 -3 -3
8 8 7 7 6 6 6 7 9 7 5 2 -0 0 3 1 -0 -3 -1 -0 -1 -2 -0 2 2 -2 -5 -3 -1 -0 0 5 5 4 3 1 4 2 -3 -3 -3 -3 -3 -3 -3
7 6 5 5 6 6 7 9 7 5 2 2 4 4 3 3 2 1 1 1 -0 -1 2 0 -1 -3 -4 -4 -3 -1 1 -1 2 1 4 2 -0 -2 -2 -2 -3 -3 -4 -4 -4
7 6 5 4 5 5 6 7 4 1 0 1 4 1 2 -0 3 2 0 -1 0 -2 -1 2 5 1 -2 -3 -4 -3 -3 3 3 8 5 2 1 -1 1 -0 -2 -4 -5 -6 -6
6 5 4 4 3 2 6 5 2 -0 1 2 1 1 0 0 0 1 2 2 1 -1 -0 2 4 2 0 1 -0 -2 0 0 0 3 5 3 1 -0 1 -0 -3 -5 -5 -6 -7
4 3 2 2 4 4 5 2 -1 1 0 2 1 2 3 2 1 1 2 1 0 1 2 1 3 4 2 -2 -2 -1 0 1 4 3 2 3 3 -0 -1 -3 -4 -5 -5 -5 -6
1 2 0 4 4 4 1 1 -0 0 1 1 2 1 -0 1 3 1 -0 -0 0 0 3 2 4 3 -0 -4 2 3 2 1 1 5 6 6 4 -1 -2 -4 -4 -0 0 -2 -6
1 2 2 4 3 2 2 1 1 0 0 -0 0 -0 1 1 0 0 -1 1 -0 2 2 1 2 1 -0 -3 -2 0 -1 -1 2 4 1 1 -0 -3 -0 1 1 0 -1 -4 -7
-1 -2 1 3 4 3 1 -0 0 1 0 -1 0 1 1 2 0 0 -0 -2 0 1 -0 0 2 1 1 -0 -1 -1 -1 -1 -0 -1 1 -2 -3 -4 -5 -5 -7 -8 -9 -8 -8
-2 -1 -1 0 -0 3 2 0 -0 -2 -1 -0 1 -4 -2 0 -0 -0 -0 -1 -1 -3 -1 -3 -2 -1 -2 -2 -2 -2 -3 -4 -4 -4 -3 -3 -3 -7 -8 -10 -10 -10 -12 -13 -15
-2 -3 -1 -2 -0 1 1 0 -1 -2 -2 -3 -3 -2 -3 -2 -3 -3 -3 -3 -2 -2 -3 -3 -2 -5 -3 -4 -5 -5 -6 -7 -8 -8 -8 -6 -6 -6 -8 -11 -14 -15 -13 -13 -13
Wind_Speed
3 3 3 3 4 5 6 6 6 7 8 8 10 11 12 12 14 16 12 8 9 6 6 4 3 1 1 2 3 2 2 4 6 1 2 9 3 2 7 11 16 12 20 21 17
5 4 5 5 6 6 6 7 8 8 9 9 10 11 12 13 15 13 8 4 1 2 5 4 2 4 4 3 2 3 3 5 7 8 7 17 14 14 12 16 23 20 20 19 17
7 7 7 8 8 8 9 9 9 10 10 11 11 12 12 12 13 2 1 3 4 3 3 4 5 6 9 7 5 4 4 6 13 19 10 10 15 16 16 8 21 25 31 26 22
10 10 10 10 10 10 10 10 11 11 12 11 11 12 11 8 4 2 4 4 5 4 4 7 6 5 5 6 12 7 11 15 18 13 9 5 15 16 22 25 24 28 30 28 27
12 12 11 11 11 11 11 11 12 12 13 13 12 12 10 4 8 12 12 14 12 10 7 7 9 11 6 7 8 7 13 18 19 13 17 16 16 13 30 33 28 28 23 21 20
13 12 11 10 11 12 12 13 13 13 13 13 12 12 9 7 10 12 11 8 8 8 7 10 4 7 12 10 8 11 13 16 19 25 25 14 14 12 25 24 24 25 24 21 21
13 12 11 10 11 11 12 13 13 13 12 12 12 11 12 14 12 11 11 10 9 8 9 9 11 6 6 6 7 9 5 10 18 16 8 10 8 9 22 13 16 19 21 24 21
13 12 10 10 10 11 11 12 12 12 11 11 10 8 7 9 12 11 12 12 10 10 12 13 14 8 8 8 6 6 6 4 7 5 6 8 8 11 14 22 26 37 33 26 28
12 11 10 10 10 11 12 12 12 12 11 10 6 5 5 5 6 6 7 6 6 10 11 9 5 5 6 3 4 7 5 9 9 9 6 5 6 11 23 25 29 33 27 25 21
13 12 11 9 9 11 12 12 12 11 8 5 3 4 5 3 5 4 2 5 3 5 3 4 5 3 3 4 4 6 9 10 10 8 8 6 10 6 21 28 28 29 26 24 22
14 13 10 8 9 9 9 7 7 3 3 6 10 14 9 11 10 10 5 6 6 4 4 8 4 6 11 12 11 4 8 10 9 9 10 10 9 9 21 27 28 26 15 27 22
15 12 10 7 7 7 6 1 3 3 8 16 22 22 18 18 5 5 7 8 7 6 9 3 6 13 9 8 9 8 9 10 8 7 6 8 10 15 18 18 23 9 26 24 19
16 13 9 8 7 6 2 2 3 5 5 8 10 5 5 7 5 5 8 5 6 7 8 9 7 8 4 5 10 9 9 9 9 7 7 6 7 9 12 15 23 28 26 21 17
18 15 11 8 5 4 3 2 4 6 4 6 4 2 0 4 3 4 10 3 5 5 7 9 5 4 5 9 6 8 6 3 3 3 4 8 7 2 10 3 14 21 21 16 13
21 16 14 11 6 5 5 4 3 2 5 3 4 4 3 2 4 1 4 4 5 3 1 1 4 2 5 6 2 2 5 4 4 6 6 8 5 4 7 11 9 14 17 14 13
24 19 15 13 13 12 7 4 2 2 7 4 5 4 4 4 2 3 3 3 2 3 5 7 5 3 4 1 2 4 4 7 8 3 3 7 4 3 4 7 6 12 17 14 13
23 17 17 14 9 11 11 8 2 5 1 6 3 4 2 5 6 5 5 4 4 3 4 4 7 5 2 2 3 2 3 4 3 2 5 7 6 6 3 11 11 16 19 16 13
17 16 15 15 12 13 12 3 7 5 7 2 3 3 3 6 4 6 3 4 9 4 3 4 5 6 5 2 2 5 3 3 5 2 7 5 7 5 5 20 26 24 20 15 13
16 14 12 12 13 13 7 5 6 7 3 4 6 4 6 5 4 6 8 8 3 2 4 3 2 3 2 2 3 2 3 1 2 2 1 5 6 10 8 10 17 20 19 14 10
16 15 16 14 14 11 3 5 6 4 2 3 4 5 7 7 7 7 5 3 4 6 7 3 4 3 3 4 4 2 1 2 0 3 5 5 5 7 8 9 11 12 14 9 5
15 7 7 17 12 9 4 5 6 8 6 5 7 10 9 8 5 4 2 3 3 4 3 4 0 3 5 3 2 2 3 4 4 5 3 9 7 5 7 8 9 10 7 2 1
12 2 6 18 6 5 5 6 5 4 7 4 2 3 4 3 5 8 7 7 8 5 2 2 1 4 7 10 8 7 11 6 4 6 6 11 13 5 9 9 11 9 7 5 5
10 4 11 24 5 8 3 6 9 7 9 6 8 9 5 7 5 7 6 7 12 3 2 2 1 2 9 2 4 3 3 4 8 0 9 9 6 5 9 8 9 11 13 12 9
10 3 8 21 16 5 10 10 9 13 10 15 4 6 4 6 5 3 2 3 7 6 7 3 2 5 8 9 9 6 12 12 3 5 10 14 18 22 7 6 13 17 15 11 7
11 4 10 5 11 12 4 3 13 10 8 5 6 12 9 6 8 11 8 6 7 10 7 3 6 7 13 13 13 10 14 16 13 15 15 23 22 23 21 12 2 4 4 4 4
8 4 4 4 14 15 15 10 11 4 9 7 9 4 8 11 7 0 4 4 0 4 5 4 4 1 7 4 8 15 21 16 17 20 21 21 23 17 11 7 3 4 3 3 5
12 10 5 8 4 8 12 15 7 9 7 5 2 3 6 4 12 9 3 4 3 1 2 2 3 2 6 1 3 8 19 18 15 18 17 18 12 2 3 4 5 4 6 9 9
Wind_Direction
287 308 321 326 326 328 328 327 327 326 324 324 324 325 324 324 322 315 308 282 288 266 239 229 236 267 164 240 249 296 293 274 284 319 300 135 181 216 276 274 282 269 274 282 285
285 292 298 302 305 306 307 309 311 311 311 312 313 314 317 321 321 309 296 283 215 194 209 211 201 223 236 209 208 240 244 267 329 343 331 328 335 329 319 292 293 295 294 292 266
277 283 287 291 295 297 298 298 300 302 304 306 307 308 313 323 325 244 149 111 114 102 159 188 237 228 245 247 211 216 222 291 313 326 349 330 304 298 290 283 275 289 302 303 304
279 284 288 291 294 296 297 300 303 302 302 303 303 303 308 317 301 305 230 251 263 256 252 215 202 208 233 249 234 253 265 272 283 293 316 284 296 303 285 271 270 280 287 292 294
280 283 286 290 294 296 299 302 304 303 302 302 298 295 302 292 250 267 271 273 268 266 236 199 218 227 253 260 298 270 249 275 291 298 286 287 279 279 281 277 275 280 288 286 288
269 273 280 287 290 295 300 305 308 307 306 303 296 288 277 237 257 259 266 259 244 234 220 205 220 256 289 284 269 299 338 305 287 275 271 267 278 297 279 291 283 277 280 285 288
264 269 275 280 288 294 300 306 310 309 310 306 299 286 265 261 257 262 261 256 246 230 215 235 244 248 313 311 331 322 315 288 275 278 246 205 295 233 281 307 335 313 290 294 291
258 261 264 272 282 291 299 305 308 309 308 305 296 275 253 259 257 264 261 258 248 233 217 220 229 246 261 279 300 272 256 289 265 211 149 125 265 284 311 321 313 296 294 299 300
247 250 257 268 284 297 303 309 311 308 305 302 287 248 262 271 262 264 248 239 241 226 226 233 221 233 271 224 283 230 249 258 283 263 129 162 246 271 288 281 281 284 297 303 297
240 246 253 273 290 299 306 311 307 297 285 286 257 245 253 249 263 254 243 221 191 174 132 168 196 209 223 210 231 271 297 310 304 316 315 279 247 278 307 299 283 295 298 292 84
238 244 257 281 293 315 325 336 322 318 299 237 287 270 291 269 269 271 243 172 131 184 207 192 208 206 226 231 245 322 299 296 299 304 289 293 308 291 280 282 291 287 295 100 89
238 247 268 278 291 318 336 0 313 299 304 276 269 264 262 261 268 277 171 173 188 205 192 139 225 235 262 297 299 290 295 282 274 277 331 297 295 286 279 270 266 280 82 84 76
235 243 260 278 283 296 287 308 325 327 252 279 236 227 224 274 236 169 183 211 202 230 201 224 253 315 260 262 273 265 260 280 286 336 288 276 262 258 265 253 81 79 81 73 70
239 246 254 267 274 221 229 286 313 317 270 188 160 187 192 172 197 242 202 217 233 256 242 228 293 294 262 259 256 278 293 308 308 317 238 49 299 278 265 309 89 86 82 79 73
246 239 237 223 192 219 228 271 286 321 285 87 141 158 156 214 144 129 179 160 253 236 189 200 138 150 232 236 108 240 2 326 286 259 300 246 252 251 232 124 119 98 102 96 88
243 218 231 223 220 229 233 208 179 218 242 128 134 152 181 188 154 132 159 179 207 277 230 245 147 213 220 52 212 44 284 256 239 214 266 230 206 333 62 151 113 107 104 98 82
205 212 219 207 199 203 180 144 214 233 172 150 129 188 222 157 169 199 175 185 211 221 210 157 197 181 160 208 130 132 275 323 310 147 219 42 330 247 201 164 157 133 114 102 89
207 199 200 203 199 189 172 196 209 200 279 85 136 182 248 158 174 181 212 234 224 234 256 228 302 134 169 236 76 205 210 190 257 243 295 326 247 234 89 87 101 108 105 93 78
180 190 199 192 183 179 173 220 194 216 279 224 147 242 225 189 198 204 217 256 43 56 251 346 238 115 137 60 118 13 171 339 278 337 66 242 272 297 132 93 100 100 91 82 69
196 194 202 187 181 181 168 220 217 251 40 339 239 264 278 261 173 185 209 77 93 43 20 44 299 291 112 124 219 217 41 332 154 235 251 253 294 268 43 138 106 89 90 85 76
189 171 210 199 183 168 214 223 236 256 182 211 239 250 275 292 300 280 256 87 149 116 55 69 229 243 347 192 194 241 250 217 246 215 245 274 266 60 78 87 101 98 101 119 309
151 101 194 178 177 198 207 188 223 194 203 246 314 278 259 285 276 249 222 186 100 87 180 127 273 260 246 291 287 266 270 250 220 260 255 259 265 46 101 104 130 164 194 224 252
128 180 194 180 203 215 217 215 229 186 201 195 217 213 213 239 231 233 242 83 99 103 88 122 185 298 322 286 34 111 54 326 315 275 256 270 260 134 138 169 195 231 258 249 243
153 165 185 206 237 258 208 221 218 215 234 223 220 233 245 240 266 227 214 91 102 101 96 44 235 193 229 258 338 316 302 287 209 275 285 269 285 288 256 221 236 251 257 229 226
191 219 180 193 215 228 262 253 219 196 214 218 240 239 222 236 238 244 239 229 135 148 148 188 242 219 258 274 290 296 280 279 275 266 260 273 277 276 287 303 356 301 99 139 234
176 184 196 310 203 201 204 223 224 251 165 204 235 239 232 244 222 142 72 25 217 148 187 197 251 243 281 271 277 275 270 270 270 268 266 267 269 284 3 29 72 54 27 319 333
210 195 182 182 198 189 215 219 214 203 193 229 224 262 266 58 65 84 65 347 331 100 162 275 159 99 254 137 317 294 253 249 253 255 259 268 274 347 21 54 59 26 296 288 290
Height
1539 1539 1539 1539 1538 1538 1538 1538 1537 1537 1536 1535 1535 1534 1533 1531 1530 1528 1526 1527 1526 1527 1527 1528 1529 1530 1531 1532 1532 1532 1536 1535 1526 1521 1520 1520 1522 1523 1523 1521 1520 1520 1517 1516 1515
1538 1538 1538 1538 1538 1537 1537 1536 1536 1535 1535 1534 1533 1532 1531 1529 1528 1525 1525 1523 1524 1525 1527 1528 1529 1531 1532 1531 1532 1533 1534 1527 1518 1519 1520 1520 1521 1522 1523 1520 1517 1517 1514 1513 1513
1537 1537 1536 1536 1536 1535 1535 1534 1534 1533 1533 1532 1531 1530 1530 1528 1526 1524 1524 1524 1524 1525 1527 1528 1530 1532 1531 1529 1530 1528 1530 1522 1520 1520 1520 1522 1521 1521 1519 1518 1516 1513 1510 1509 1512
1535 1534 1534 1534 1533 1533 1532 1532 1532 1531 1530 1529 1529 1528 1527 1528 1530 1524 1524 1524 1524 1524 1525 1526 1528 1531 1530 1528 1526 1527 1524 1524 1522 1521 1520 1521 1520 1519 1517 1511 1511 1509 1508 1507 1507
1533 1532 1532 1532 1531 1531 1530 1530 1529 1529 1528 1527 1526 1525 1525 1525 1524 1522 1523 1523 1523 1523 1524 1525 1527 1528 1527 1523 1523 1523 1522 1523 1521 1519 1518 1518 1517 1520 1509 1506 1507 1505 1503 1503 1502
1529 1529 1530 1530 1529 1529 1528 1528 1527 1526 1525 1524 1523 1523 1524 1524 1519 1519 1520 1520 1520 1522 1523 1525 1526 1526 1524 1523 1524 1520 1520 1520 1519 1516 1514 1514 1513 1517 1503 1503 1501 1501 1500 1499 1500
1527 1527 1527 1527 1527 1526 1526 1525 1524 1523 1522 1522 1521 1520 1520 1519 1516 1517 1517 1518 1518 1519 1521 1524 1525 1525 1523 1521 1521 1521 1524 1518 1512 1509 1508 1509 1514 1510 1503 1502 1499 1497 1496 1496 1497
1524 1525 1525 1525 1525 1524 1523 1523 1522 1521 1520 1519 1519 1518 1516 1514 1514 1514 1515 1515 1516 1518 1519 1520 1522 1523 1523 1522 1521 1522 1521 1524 1508 1504 1508 1509 1517 1503 1502 1500 1498 1492 1492 1495 1493
1521 1522 1522 1523 1523 1522 1521 1520 1519 1518 1517 1517 1517 1517 1515 1512 1512 1512 1512 1513 1514 1515 1517 1519 1521 1523 1522 1524 1527 1518 1525 1517 1511 1501 1507 1511 1512 1501 1499 1497 1493 1487 1489 1489 1489
1519 1519 1520 1521 1521 1520 1519 1518 1516 1515 1515 1515 1515 1518 1513 1511 1510 1510 1511 1512 1514 1515 1517 1519 1520 1521 1521 1525 1533 1520 1518 1512 1514 1505 1502 1505 1507 1500 1498 1492 1486 1486 1485 1484 1483
1516 1517 1518 1519 1519 1518 1518 1517 1517 1515 1512 1511 1513 1511 1511 1509 1508 1507 1509 1510 1514 1517 1516 1517 1520 1522 1515 1512 1509 1512 1514 1515 1508 1503 1504 1504 1500 1497 1491 1486 1482 1482 1482 1481 1481
1513 1515 1516 1516 1516 1517 1516 1516 1516 1518 1512 1508 1506 1507 1505 1506 1508 1506 1509 1511 1511 1511 1511 1519 1520 1508 1505 1507 1509 1509 1515 1513 1504 1499 1501 1500 1501 1493 1487 1480 1476 1477 1481 1485 1485
1509 1511 1514 1515 1514 1515 1515 1515 1515 1514 1513 1503 1499 1500 1503 1505 1504 1505 1508 1508 1509 1509 1508 1511 1504 1501 1505 1507 1509 1509 1511 1508 1509 1504 1500 1499 1499 1492 1478 1472 1479 1482 1485 1487 1489
1506 1508 1510 1512 1515 1512 1513 1513 1514 1514 1511 1497 1498 1499 1500 1501 1503 1503 1504 1508 1506 1505 1503 1504 1504 1504 1504 1506 1507 1513 1500 1499 1504 1508 1515 1499 1508 1485 1476 1476 1482 1485 1488 1492 1495
1502 1504 1506 1509 1509 1511 1511 1511 1512 1513 1519 1495 1498 1499 1498 1501 1502 1501 1502 1504 1505 1502 1505 1502 1503 1505 1508 1504 1500 1503 1504 1504 1504 1509 1511 1506 1512 1477 1469 1483 1487 1489 1492 1493 1496
1496 1499 1503 1505 1506 1507 1508 1509 1511 1517 1513 1494 1496 1496 1497 1500 1501 1501 1500 1502 1502 1502 1500 1497 1499 1501 1500 1499 1500 1502 1503 1503 1503 1508 1522 1494 1492 1486 1477 1482 1488 1492 1495 1499 1500
1489 1494 1498 1500 1503 1503 1504 1507 1514 1513 1487 1492 1492 1493 1492 1493 1497 1499 1501 1503 1502 1504 1502 1497 1497 1494 1496 1500 1501 1505 1507 1521 1519 1524 1518 1493 1498 1484 1472 1472 1476 1487 1494 1499 1502
1486 1489 1493 1497 1499 1501 1502 1506 1511 1498 1490 1489 1490 1491 1492 1490 1491 1496 1495 1498 1491 1494 1500 1501 1501 1493 1496 1495 1498 1500 1502 1523 1529 1522 1510 1497 1504 1484 1473 1476 1480 1488 1495 1500 1503
1481 1485 1490 1492 1495 1499 1502 1503 1499 1494 1486 1486 1489 1492 1491 1490 1491 1492 1493 1491 1489 1492 1500 1497 1495 1492 1492 1493 1497 1498 1505 1498 1512 1520 1524 1497 1481 1472 1473 1485 1488 1493 1498 1502 1504
1481 1484 1485 1491 1494 1497 1499 1495 1490 1486 1488 1489 1490 1484 1488 1486 1491 1492 1490 1490 1493 1495 1495 1498 1506 1491 1495 1494 1497 1500 1500 1510 1510 1518 1523 1494 1489 1482 1483 1489 1491 1495 1500 1503 1505
1478 1481 1484 1487 1492 1496 1495 1490 1485 1484 1487 1491 1487 1486 1485 1487 1487 1490 1491 1491 1492 1496 1497 1499 1504 1499 1494 1495 1495 1502 1502 1503 1502 1506 1512 1504 1493 1482 1488 1492 1495 1497 1500 1502 1503
1473 1480 1483 1485 1492 1488 1486 1482 1483 1484 1485 1487 1489 1489 1489 1487 1487 1489 1490 1492 1491 1496 1498 1501 1505 1512 1498 1493 1494 1496 1498 1500 1509 1504 1500 1494 1493 1487 1490 1494 1495 1496 1499 1497 1498
1471 1478 1482 1487 1484 1482 1479 1477 1478 1479 1482 1484 1485 1485 1485 1487 1491 1485 1485 1487 1491 1496 1498 1501 1509 1520 1508 1492 1492 1494 1497 1499 1500 1507 1499 1502 1490 1487 1489 1492 1491 1491 1489 1492 1494
1471 1477 1480 1480 1476 1476 1475 1474 1476 1477 1478 1481 1480 1481 1483 1485 1485 1486 1486 1488 1492 1497 1500 1502 1506 1511 1512 1496 1494 1505 1499 1499 1506 1508 1505 1498 1491 1481 1484 1488 1487 1486 1485 1487 1489
1467 1463 1462 1470 1468 1473 1472 1467 1469 1474 1477 1478 1478 1480 1482 1485 1484 1485 1486 1488 1492 1496 1500 1503 1509 1507 1502 1500 1501 1504 1503 1498 1503 1500 1504 1488 1489 1479 1479 1480 1482 1482 1483 1485 1487
1457 1462 1462 1462 1463 1465 1467 1463 1465 1467 1472 1475 1476 1476 1479 1482 1485 1492 1491 1491 1495 1497 1499 1500 1513 1507 1513 1506 1507 1506 1495 1497 1496 1492 1487 1482 1478 1477 1480 1479 1480 1481 1482 1483 1483
1452 1457 1458 1454 1458 1460 1459 1458 1460 1464 1469 1471 1475 1477 1480 1483 1486 1491 1495 1495 1498 1500 1502 1505 1509 1523 1518 1504 1510 1521 1490 1490 1484 1480 1478 1481 1478 1481 1480 1479 1480 1481 1481 1481 1482